Weather History for Lancaster, CA

Change the Weather History Date:

Friday, November 26, 2010

  Actual Average Record
Temperature  
Mean Temperature 35 °F 47 °F  
Max Temperature 52 °F 62 °F 80 °F (1977)
Min Temperature 17 °F 33 °F 16 °F (1993)
Degree Days  
Heating Degree Days 30    
Month to date heating degree days 370  
Since 1 July heating degree days 506  
Cooling Degree Days 0    
Month to date cooling degree days 0  
Year to date cooling degree days 1776  
Moisture  
Dew Point 11 °F    
Average Humidity 46    
Maximum Humidity 80    
Minimum Humidity 11    
Precipitation  
Precipitation 0.00 in 0.02 in 0.99 in (2008)
Month to date precipitation 0.48 0.45  
Year to date precipitation 8.97 6.14  
Since 1 July precipitation 2.23 1.23  
Snow  
Snow 0.00 in - 0.00 in ()
Month to date snowfall 0.0  
Since 1 July snowfall 0.0  
Since 1 September snowfall 0.0  
Snow Depth 0.00 in    
Sea Level Pressure  
Sea Level Pressure 30.32 in    
Wind  
Wind Speed 3 mph (WNW)    
Max Wind Speed 23 mph    
Max Gust Speed 28 mph    
Visibility 10 miles    
Events      
T = Trace of Precipitation, MM = Missing Value Source: NWS Daily Summary

Daily Weather History Graph

Daily Weather History Graph

Search for Another Location

Airport:

Trip Planner

Search our weather history database for the weather conditions in past years. The results will help you decide how hot, cold, wet, or windy it might be!

Date:

Astronomy

Nov. 26, 2010 Rise Set
Actual Time 6:37 AM PST 4:42 PM PST
Civil Twilight 6:10 AM PST 5:10 PM PST
Nautical Twilight 5:39 AM PST 5:41 PM PST
Astronomical Twilight 5:08 AM PST 6:11 PM PST
Moon 9:52 PM PST (11/26) 10:50 AM PST (11/26)
Length of Visible Light 11h 00m
Length of Day
10h 05m
Waning Gibbous, 72% of the Moon is Illuminated
Nov 26
Waning Gibbous
Nov 28
Last Quarter
Dec 5
New
Dec 13
First Quarter
Dec 21
Full

Hourly Weather History & Observations

Time (PST) Temp. Windchill Dew Point Humidity Pressure Visibility Wind Dir Wind Speed Gust Speed Precip Events Conditions
12:56 AM 21.0 °F 14.6 °F 12.9 °F 71% 30.40 in 10.0 mi NW 4.6 mph - N/A   Clear
1:56 AM 21.0 °F 13.4 °F 12.9 °F 71% 30.40 in 10.0 mi West 5.8 mph - N/A   Clear
2:56 AM 21.0 °F 16.2 °F 12.9 °F 71% 30.39 in 10.0 mi West 3.5 mph - N/A   Clear
3:56 AM 21.0 °F - 12.9 °F 71% 30.38 in 10.0 mi Calm Calm - N/A   Clear
4:56 AM 21.0 °F - 12.0 °F 68% 30.40 in 10.0 mi Calm Calm - N/A   Clear
5:56 AM 19.0 °F 13.9 °F 12.0 °F 74% 30.43 in 10.0 mi West 3.5 mph - N/A   Clear
6:56 AM 18.0 °F - 12.0 °F 78% 30.44 in 10.0 mi Calm Calm - N/A   Clear
8:56 AM 33.1 °F - 16.0 °F 50% 30.43 in 10.0 mi Calm Calm - N/A   Clear
9:56 AM 37.9 °F - 12.0 °F 35% 30.42 in 10.0 mi Calm Calm - N/A   Clear
10:56 AM 43.0 °F - 9.0 °F 25% 30.39 in 10.0 mi Calm Calm - N/A   Clear
12:56 PM 50.0 °F - 1.9 °F 14% 30.30 in 10.0 mi ENE 6.9 mph - N/A   Clear
1:56 PM 51.1 °F - 3.0 °F 14% 30.27 in 10.0 mi ENE 6.9 mph - N/A   Clear
2:56 PM 51.1 °F - -2.0 °F 11% 30.25 in 10.0 mi East 4.6 mph - N/A   Clear
3:56 PM 51.1 °F - -0.9 °F 12% 30.23 in 10.0 mi NE 5.8 mph - N/A   Clear
4:56 PM 46.9 °F - 6.1 °F 19% 30.24 in 10.0 mi Calm Calm - N/A   Clear
5:56 PM 37.9 °F - 12.9 °F 36% 30.25 in 10.0 mi Calm Calm - N/A   Clear
6:56 PM 30.0 °F 23.2 °F 17.1 °F 59% 30.27 in 10.0 mi WNW 6.9 mph - N/A   Clear
7:56 PM 30.0 °F 22.4 °F 16.0 °F 56% 30.25 in 10.0 mi West 8.1 mph - N/A   Clear
8:56 PM 30.9 °F 25.2 °F 12.9 °F 47% 30.23 in 10.0 mi WSW 5.8 mph - N/A   Clear
9:56 PM 27.0 °F 23.0 °F 15.1 °F 61% 30.22 in 10.0 mi WNW 3.5 mph - N/A   Clear
10:56 PM 26.1 °F 18.4 °F 14.0 °F 60% 30.20 in 10.0 mi WNW 6.9 mph - N/A   Clear
11:56 PM 26.1 °F 20.5 °F 14.0 °F 60% 30.19 in 10.0 mi West 4.6 mph - N/A   Clear